HORIZONS-3E

Last updated on Fri Sep 19 2025 00:02:50 GMT+0000 (Coordinated Universal Time)

1 43633U 18074B 25261.19697456 -.00000051 00000+0 00000+0 0 9997 2 43633 0.0189 248.3402 0001838 41.4869 307.4591 1.00272336 25611
UTC large
Height (km)
Speed (km/s)
/
Latitude / Longitude
Inclination (degrees)
Orbital Period (minutes)
Azimuth
Elevation
Range (km)
Doppler Factor

Next 0 passes for location: London (51.5072 / 0.1276)

Sorry there are no passes over London.